Location: Cremona
(45.1170°N, 10.0330°E)
Time: 17:51:40
(UTC+01:00)

ISS - Pass Details

Date: 30 January 2019
Orbit: 403 x 411 km, 51.6° (Epoch: 20 February)

Event Time Altitude Azimuth Distance (km) Brightness Sun altitude
Rises 19:00:29 0° 284° (WNW) 2,336 1.3 -17.1°
Reaches altitude 10° 19:02:48 10° 298° (WNW) 1,477 -0.2 -17.5°
Maximum altitude 19:05:37 25° 357° (N) 865 -2.2 -18.0°
Enters shadow 19:06:01 25° 9° (N) 881 -2.3 -18.1°
